Regional Weather Roundup
Issued by NWS

Home | Current Version | Previous Version | Text Only | Print | Product List | Glossary Off
Versions: 1 2 3 4 5 6 7 8 9 10 11 12 13 14 15 16 17 18 19 20 21 22 23 24 25 26 27 28 29 30 31 32 33 34 35 36 37 38 39 40 41 42 43 44 45 46 47 48 49 50

222
ASUS44 KJAN 262203
RWRMS

MISSISSIPPI HOURLY WEATHER ROUNDUP
NATIONAL WEATHER SERVICE JACKSON MS
400 PM CST THU FEB 26 2015

NOTE: "FAIR: INDICATES FEW OR NO CLOUDS BELOW 12,000 FEET WITH NO
SIGNIFICANT WEATHER AND/OR OBSTRUCTIONS TO VISIBILITY.

MSZ001>002-007>008-010>013-018>021-025>028-034>036-262300-
NORTHWEST MISSISSIPPI

CITY           SKY/WX    TMP DP  RH WIND       PRES   REMARKS
CLARKSDALE     CLOUDY    32  28  86 N16G22    30.25R WCI  21
CLEVELAND      CLOUDY    34  31  88 N14G21    30.24R WCI  25
GREENWOOD        N/A    N/A N/A N/A MISG      30.22R
GREENVILLE     CLOUDY    35  29  78 N12       30.24R HAZE    WCI  27
OLIVE BRANCH   CLOUDY    32  32 100 N14G23    30.21R WCI  22
OXFORD         CLOUDY    36  30  80 NW9       30.19R WCI  29
TUNICA         CLOUDY    32  28  86 N15       30.26R WCI  22
$$

MSZ003>006-009-014>017-022>024-029>033-037>039-262300-
NORTHEAST MISSISSIPPI

CITY           SKY/WX    TMP DP  RH WIND       PRES   REMARKS
COLUMBUS AFB   CLOUDY    38  30  73 NW10      30.17R WCI  31
CORINTH        CLOUDY    43  28  56 NW10G16   30.13R
STARKVILLE     CLOUDY    37  32  81 N5        30.17R WCI  34
TUPELO         CLOUDY    38  31  76 VRB7      30.16R WCI  33
$$

MSZ040-058-262300-
CENTRAL MISSISSIPPI

CITY           SKY/WX    TMP DP  RH WIND       PRES   REMARKS
JACKSON INTL   PTSUNNY   41  31  67 N15       30.18R
JACKSON HAWKNS CLOUDY    38  30  73 NW14      30.19R WCI  30
MERIDIAN KEY   SUNNY     47  28  47 N16G23    30.12R
MERIDIAN NAS   MOSUNNY   47  27  45 N12       30.12R
VICKSBURG      CLOUDY    37  31  78 NW8       30.23R WCI  31
$$

MSZ059>079-262300-
SOUTH MISSISSIPPI

CITY           SKY/WX    TMP DP  RH WIND       PRES   REMARKS
BROOKHAVEN     FAIR      46  34  61 NW9       30.15R
HATTIESBURG    SUNNY     50  31  48 NW10      30.11R
MCCOMB         SUNNY     50  30  46 N13       30.11R
NATCHEZ        CLOUDY    43  32  65 N16       30.18R
PINE BELT      SUNNY     48  30  49 N13G18    30.12R
$$

MSZ080>082-262300-
COASTAL MISSISSIPPI

CITY           SKY/WX    TMP DP  RH WIND       PRES   REMARKS
BAY ST LOUIS   SUNNY     48  30  49 N14       30.08S
BILOXI         SUNNY     48  35  61 N9        30.07R
PASCAGOULA     SUNNY     49  35  58 N10G20    30.06S
GULFPORT       SUNNY     49  33  54 N15       30.07R
$$



USA.gov is the U.S. government's official web portal to all federal, state and local government web resources and services.